Location: ??????
(44.5958°N, 34.0092°E)
Time: 20:03:43
(UTC+00:00)

Cosmos 1400 Rocket - Pass Details

Date: 06 June 2020
Orbit: 522 x 568 km, 81.2° (Epoch: 05 July)

Event Time Altitude Azimuth Distance (km) Brightness Sun altitude
Rises 00:09:06 0° 334° (NNW) 2,778 6.8 -14.9°
Reaches altitude 10° 00:11:46 10° 317° (NW) 1,875 5.7 -14.6°
Maximum altitude 00:14:43 19° 271° (W) 1,370 4.5 -14.3°
Enters shadow 00:15:40 18° 253° (WSW) 1,427 4.5 -14.2°
